AAL514 KORD-KGJT

Flight info

Callsign AAL514
Flight time 2h 59m
Altitude 30000
Route ACITO ADELL ARLYN STL KK45E ICT GCK PUB HBU JNC
Aircraft A320/M-SDE3FGHIRWY/LB1

Departure

Time 2026-05-04 19:38
Airport Chicago O'Hare International Airport (KORD)

Arrival

Time 2026-05-04 22:38
Airport Grand Junction Regional Airport (KGJT)
Time Latitude Longitude Altitude Speed Heading
2026-05-04 18:36 41.97409 -87.90095 669 ft 0 kts 90°
2026-05-04 19:29 41.97409 -87.90114 669 ft 2 kts 90°
2026-05-04 19:29 41.97411 -87.90143 668 ft 4 kts 127°
2026-05-04 19:30 41.97432 -87.90159 666 ft 4 kts 176°
2026-05-04 19:30 41.97456 -87.90160 667 ft 2 kts 180°
2026-05-04 19:30 41.97457 -87.90160 667 ft 0 kts 180°
2026-05-04 19:33 41.97451 -87.90160 668 ft 3 kts 180°
2026-05-04 19:34 41.97403 -87.90160 667 ft 11 kts 180°
2026-05-04 19:34 41.97300 -87.90160 669 ft 19 kts 180°
2026-05-04 19:34 41.97148 -87.90133 669 ft 24 kts 176°
2026-05-04 19:34 41.97047 -87.90083 669 ft 17 kts 108°
2026-05-04 19:35 41.97042 -87.89890 669 ft 24 kts 90°
2026-05-04 19:35 41.97042 -87.89639 670 ft 30 kts 90°
2026-05-04 19:35 41.97042 -87.89345 669 ft 32 kts 90°
2026-05-04 19:35 41.97043 -87.89041 669 ft 33 kts 90°
2026-05-04 19:36 41.97044 -87.88732 668 ft 29 kts 89°
2026-05-04 19:36 41.97045 -87.88513 669 ft 15 kts 89°
2026-05-04 19:36 41.96984 -87.88410 668 ft 16 kts 164°
2026-05-04 19:36 41.96908 -87.88452 668 ft 9 kts 256°
2026-05-04 19:37 41.96908 -87.88461 668 ft 0 kts 270°
2026-05-04 19:37 41.96908 -87.88462 668 ft 1 kts 270°
2026-05-04 19:37 41.96908 -87.88560 668 ft 37 kts 269°
2026-05-04 19:37 41.96905 -87.89218 669 ft 100 kts 270°
2026-05-04 19:38 41.96913 -87.90381 719 ft 142 kts 272°
2026-05-04 19:38 41.96961 -87.91698 1301 ft 141 kts 268°
2026-05-04 19:38 41.96817 -87.92992 1800 ft 146 kts 244°
2026-05-04 19:38 41.96108 -87.94317 1752 ft 205 kts 223°
2026-05-04 19:39 41.94793 -87.95357 2350 ft 227 kts 201°
2026-05-04 19:39 41.93182 -87.95858 3159 ft 250 kts 194°
2026-05-04 19:39 41.91482 -87.96318 4229 ft 251 kts 197°
2026-05-04 19:39 41.89776 -87.96915 5204 ft 259 kts 202°
2026-05-04 19:40 41.88068 -87.97684 6121 ft 264 kts 204°
2026-05-04 19:40 41.86304 -87.98523 6949 ft 268 kts 203°
2026-05-04 19:40 41.84522 -87.99349 7846 ft 276 kts 203°
2026-05-04 19:40 41.82726 -88.00159 9009 ft 270 kts 204°
2026-05-04 19:41 41.80937 -88.00944 9752 ft 271 kts 204°
2026-05-04 19:41 41.79156 -88.01703 10473 ft 273 kts 204°
2026-05-04 19:41 41.77293 -88.02494 10591 ft 296 kts 203°
2026-05-04 19:41 41.75264 -88.03357 10761 ft 315 kts 203°
2026-05-04 19:42 41.73158 -88.04241 11415 ft 314 kts 203°
2026-05-04 19:42 41.71011 -88.05147 11563 ft 333 kts 204°
2026-05-04 19:42 41.68758 -88.06159 11725 ft 349 kts 204°
2026-05-04 19:42 41.66429 -88.07207 12190 ft 356 kts 204°
2026-05-04 19:43 41.64063 -88.08246 12728 ft 360 kts 204°
2026-05-04 19:43 41.61672 -88.09271 13315 ft 363 kts 203°
2026-05-04 19:43 41.59256 -88.10289 13833 ft 366 kts 203°
2026-05-04 19:43 41.56846 -88.11293 14300 ft 369 kts 203°
2026-05-04 19:44 41.54379 -88.12314 14773 ft 373 kts 202°
2026-05-04 19:44 41.51891 -88.13342 15252 ft 377 kts 202°
2026-05-04 19:44 41.49376 -88.14384 15750 ft 380 kts 202°
2026-05-04 19:44 41.46838 -88.15438 16238 ft 384 kts 202°
2026-05-04 19:45 41.44280 -88.16499 16735 ft 387 kts 202°
2026-05-04 19:45 41.41695 -88.17575 17227 ft 391 kts 202°
2026-05-04 19:45 41.39090 -88.18662 17735 ft 394 kts 202°
2026-05-04 19:45 41.36469 -88.19796 18208 ft 397 kts 203°
2026-05-04 19:46 41.33877 -88.20955 18638 ft 400 kts 203°
2026-05-04 19:46 41.31235 -88.22156 19072 ft 403 kts 203°
2026-05-04 19:46 41.28574 -88.23369 19511 ft 406 kts 203°
2026-05-04 19:46 41.25892 -88.24586 19948 ft 409 kts 203°
2026-05-04 19:47 41.23196 -88.25804 20359 ft 411 kts 203°
2026-05-04 19:47 41.20474 -88.27035 20745 ft 414 kts 203°
2026-05-04 19:47 41.17737 -88.28274 21123 ft 417 kts 203°
2026-05-04 19:47 41.14984 -88.29521 21492 ft 419 kts 203°
2026-05-04 19:48 41.12216 -88.30774 21840 ft 422 kts 202°
2026-05-04 19:48 41.09465 -88.32019 22174 ft 425 kts 202°
2026-05-04 19:48 41.06662 -88.33283 22518 ft 427 kts 202°
2026-05-04 19:48 41.03842 -88.34551 22852 ft 429 kts 202°
2026-05-04 19:49 41.01005 -88.35826 23174 ft 431 kts 202°
2026-05-04 19:49 40.98156 -88.37104 23464 ft 433 kts 202°
2026-05-04 19:49 40.95293 -88.38386 23738 ft 435 kts 202°
2026-05-04 19:49 40.92422 -88.39672 24015 ft 437 kts 202°
2026-05-04 19:50 40.89536 -88.40967 24288 ft 439 kts 202°
2026-05-04 19:50 40.86677 -88.42250 24554 ft 440 kts 202°
2026-05-04 19:50 40.83775 -88.43551 24879 ft 441 kts 202°
2026-05-04 19:50 40.80877 -88.44847 25290 ft 439 kts 202°
2026-05-04 19:51 40.77986 -88.46137 25711 ft 438 kts 202°
2026-05-04 19:51 40.75105 -88.47420 26109 ft 437 kts 202°
2026-05-04 19:51 40.72229 -88.48703 26517 ft 436 kts 202°
2026-05-04 19:51 40.69354 -88.49981 26926 ft 435 kts 202°
2026-05-04 19:52 40.66486 -88.51255 27333 ft 435 kts 202°
2026-05-04 19:52 40.63659 -88.52514 27721 ft 434 kts 202°
2026-05-04 19:52 40.60801 -88.53787 28143 ft 433 kts 202°
2026-05-04 19:52 40.57950 -88.55052 28564 ft 432 kts 202°
2026-05-04 19:53 40.55104 -88.56313 28988 ft 431 kts 202°
2026-05-04 19:53 40.52263 -88.57568 29422 ft 430 kts 202°
2026-05-04 19:53 40.49429 -88.58822 29679 ft 430 kts 202°
2026-05-04 19:54 40.43675 -88.61377 29715 ft 444 kts 202°
2026-05-04 19:54 40.37819 -88.63966 29716 ft 448 kts 202°
2026-05-04 19:55 40.32109 -88.67098 29716 ft 442 kts 215°
2026-05-04 19:55 40.27400 -88.72119 29726 ft 436 kts 229°
2026-05-04 19:56 40.23089 -88.77693 29718 ft 436 kts 227°
2026-05-04 19:56 40.18782 -88.83193 29714 ft 436 kts 227°
2026-05-04 19:57 40.14442 -88.88731 29705 ft 436 kts 227°
2026-05-04 19:57 40.10098 -88.94274 29714 ft 437 kts 227°
2026-05-04 19:58 40.05745 -88.99819 29720 ft 437 kts 227°
2026-05-04 19:58 40.01414 -89.05326 29725 ft 438 kts 227°
2026-05-04 19:59 39.97048 -89.10862 29724 ft 438 kts 227°
2026-05-04 19:59 39.92673 -89.16393 29716 ft 438 kts 227°
2026-05-04 20:00 39.88294 -89.21922 29716 ft 438 kts 227°
2026-05-04 20:00 39.83942 -89.27413 29716 ft 439 kts 227°
2026-05-04 20:01 39.79559 -89.32935 29723 ft 439 kts 227°
2026-05-04 20:01 39.75171 -89.38443 29734 ft 439 kts 227°
2026-05-04 20:02 39.70776 -89.43956 29750 ft 439 kts 227°
2026-05-04 20:02 39.66382 -89.49457 29750 ft 439 kts 227°
2026-05-04 20:03 39.62011 -89.54923 29747 ft 439 kts 227°
2026-05-04 20:03 39.57613 -89.60409 29746 ft 439 kts 227°
2026-05-04 20:04 39.53212 -89.65884 29741 ft 439 kts 227°
2026-05-04 20:04 39.48808 -89.71359 29732 ft 439 kts 227°
2026-05-04 20:05 39.44431 -89.76789 29721 ft 439 kts 227°
2026-05-04 20:05 39.40015 -89.82256 29717 ft 439 kts 227°
2026-05-04 20:06 39.35600 -89.87717 29712 ft 439 kts 227°
2026-05-04 20:06 39.31177 -89.93170 29712 ft 440 kts 227°
2026-05-04 20:07 39.26749 -89.98613 29709 ft 440 kts 227°
2026-05-04 20:07 39.22351 -90.04016 29711 ft 439 kts 227°
2026-05-04 20:08 39.17924 -90.09454 29717 ft 440 kts 227°
2026-05-04 20:08 39.13492 -90.14881 29722 ft 439 kts 227°
2026-05-04 20:09 39.09096 -90.20257 29725 ft 439 kts 227°
2026-05-04 20:09 39.04670 -90.25655 29721 ft 438 kts 227°
2026-05-04 20:10 39.00243 -90.31035 29727 ft 437 kts 228°
2026-05-04 20:10 38.95829 -90.36404 29733 ft 437 kts 228°
2026-05-04 20:11 38.91416 -90.41757 29733 ft 436 kts 228°
2026-05-04 20:11 38.87333 -90.47358 29730 ft 428 kts 239°
2026-05-04 20:12 38.84783 -90.54134 29726 ft 420 kts 256°
2026-05-04 20:12 38.83211 -90.61334 29719 ft 419 kts 257°
2026-05-04 20:13 38.81620 -90.68525 29720 ft 419 kts 257°
2026-05-04 20:13 38.80021 -90.75714 29716 ft 419 kts 256°
2026-05-04 20:14 38.78447 -90.82791 29715 ft 419 kts 257°
2026-05-04 20:14 38.76848 -90.89976 29712 ft 419 kts 257°
2026-05-04 20:15 38.75249 -90.97159 29715 ft 419 kts 257°
2026-05-04 20:15 38.73647 -91.04311 29716 ft 419 kts 257°
2026-05-04 20:16 38.72040 -91.11437 29716 ft 419 kts 257°
2026-05-04 20:16 38.70422 -91.18609 29710 ft 419 kts 257°
2026-05-04 20:17 38.68799 -91.25781 29709 ft 419 kts 257°
2026-05-04 20:17 38.67174 -91.32946 29701 ft 419 kts 257°
2026-05-04 20:18 38.65558 -91.40062 29699 ft 419 kts 257°
2026-05-04 20:18 38.63922 -91.47215 29689 ft 419 kts 257°
2026-05-04 20:19 38.62285 -91.54357 29692 ft 419 kts 257°
2026-05-04 20:19 38.60648 -91.61501 29696 ft 419 kts 257°
2026-05-04 20:20 38.59014 -91.68592 29688 ft 419 kts 257°
2026-05-04 20:20 38.57360 -91.75726 29697 ft 419 kts 257°
2026-05-04 20:21 38.55707 -91.82856 29705 ft 418 kts 257°
2026-05-04 20:21 38.53225 -91.93541 29716 ft 418 kts 257°
2026-05-04 20:22 38.51575 -92.00614 29723 ft 418 kts 257°
2026-05-04 20:22 38.49905 -92.07719 29727 ft 418 kts 257°
2026-05-04 20:23 38.48233 -92.14824 29725 ft 418 kts 257°
2026-05-04 20:23 38.46559 -92.21917 29723 ft 417 kts 257°
2026-05-04 20:24 38.44896 -92.28968 29715 ft 417 kts 257°
2026-05-04 20:24 38.43212 -92.36048 29719 ft 417 kts 257°
2026-05-04 20:25 38.41526 -92.43129 29708 ft 417 kts 257°
2026-05-04 20:25 38.39839 -92.50200 29699 ft 417 kts 257°
2026-05-04 20:26 38.38149 -92.57273 29691 ft 417 kts 257°
2026-05-04 20:26 38.36468 -92.64285 29696 ft 417 kts 257°
2026-05-04 20:27 38.34773 -92.71349 29695 ft 417 kts 256°
2026-05-04 20:27 38.33070 -92.78412 29692 ft 417 kts 256°
2026-05-04 20:28 38.31403 -92.85267 29707 ft 417 kts 256°
2026-05-04 20:28 38.29689 -92.92320 29704 ft 417 kts 256°
2026-05-04 20:29 38.27984 -92.99333 29713 ft 418 kts 256°
2026-05-04 20:29 38.26254 -93.06387 29730 ft 418 kts 256°
2026-05-04 20:30 38.24524 -93.13441 29737 ft 417 kts 256°
2026-05-04 20:30 38.22792 -93.20489 29742 ft 417 kts 256°
2026-05-04 20:31 38.21068 -93.27487 29746 ft 418 kts 256°
2026-05-04 20:31 38.19335 -93.34530 29745 ft 417 kts 256°
2026-05-04 20:32 38.17599 -93.41568 29744 ft 417 kts 256°
2026-05-04 20:32 38.15846 -93.48600 29740 ft 417 kts 256°
2026-05-04 20:33 38.14094 -93.55612 29728 ft 417 kts 256°
2026-05-04 20:33 38.12344 -93.62577 29726 ft 417 kts 256°
2026-05-04 20:34 38.10586 -93.69586 29727 ft 417 kts 256°
2026-05-04 20:34 38.08819 -93.76592 29729 ft 416 kts 256°
2026-05-04 20:35 38.07059 -93.83577 29727 ft 416 kts 256°
2026-05-04 20:35 38.05309 -93.90507 29728 ft 415 kts 256°
2026-05-04 20:36 38.03544 -93.97488 29728 ft 415 kts 256°
2026-05-04 20:36 38.01771 -94.04451 29726 ft 415 kts 256°
2026-05-04 20:37 37.99992 -94.11409 29724 ft 415 kts 256°
2026-05-04 20:37 37.98232 -94.18315 29724 ft 415 kts 256°
2026-05-04 20:38 37.96453 -94.25262 29724 ft 414 kts 256°
2026-05-04 20:38 37.94668 -94.32204 29721 ft 414 kts 256°
2026-05-04 20:39 37.92887 -94.39091 29716 ft 414 kts 256°
2026-05-04 20:39 37.91093 -94.46015 29706 ft 414 kts 256°
2026-05-04 20:40 37.89302 -94.52943 29712 ft 414 kts 256°
2026-05-04 20:40 37.87506 -94.59869 29708 ft 414 kts 256°
2026-05-04 20:41 37.85697 -94.66797 29707 ft 414 kts 256°
2026-05-04 20:41 37.83893 -94.73668 29702 ft 414 kts 256°
2026-05-04 20:42 37.82078 -94.80592 29701 ft 415 kts 256°
2026-05-04 20:42 37.80271 -94.87513 29710 ft 415 kts 256°
2026-05-04 20:43 37.78475 -94.94321 29707 ft 415 kts 256°
2026-05-04 20:43 37.76656 -95.01185 29709 ft 415 kts 256°
2026-05-04 20:44 37.74824 -95.08099 29702 ft 415 kts 256°
2026-05-04 20:44 37.72987 -95.15010 29718 ft 415 kts 256°
2026-05-04 20:45 37.71146 -95.21909 29728 ft 414 kts 256°
2026-05-04 20:45 37.69316 -95.28758 29738 ft 414 kts 256°
2026-05-04 20:46 37.67477 -95.35643 29747 ft 414 kts 256°
2026-05-04 20:46 37.65632 -95.42522 29751 ft 414 kts 256°
2026-05-04 20:47 37.64089 -95.48230 29751 ft 413 kts 256°
2026-05-04 20:47 37.62241 -95.55082 29752 ft 413 kts 256°
2026-05-04 20:48 37.60092 -95.63038 29746 ft 412 kts 256°
2026-05-04 20:48 37.58553 -95.68721 29732 ft 412 kts 256°
2026-05-04 20:49 37.56693 -95.75548 29723 ft 412 kts 256°
2026-05-04 20:49 37.54833 -95.82369 29718 ft 411 kts 256°
2026-05-04 20:50 37.52967 -95.89171 29710 ft 411 kts 256°
2026-05-04 20:50 37.51129 -95.95980 29712 ft 408 kts 259°
2026-05-04 20:51 37.50592 -96.02911 29714 ft 398 kts 277°
2026-05-04 20:51 37.51587 -96.09742 29718 ft 396 kts 283°
2026-05-04 20:52 37.52682 -96.16542 29717 ft 396 kts 282°
2026-05-04 20:52 37.53767 -96.23344 29714 ft 396 kts 282°
2026-05-04 20:53 37.54849 -96.30133 29713 ft 395 kts 283°
2026-05-04 20:53 37.55916 -96.36876 29718 ft 395 kts 282°
2026-05-04 20:54 37.56988 -96.43655 29717 ft 394 kts 283°
2026-05-04 20:54 37.58062 -96.50431 29719 ft 394 kts 282°
2026-05-04 20:55 37.59130 -96.57202 29722 ft 394 kts 282°
2026-05-04 20:55 37.60174 -96.63919 29727 ft 393 kts 282°
2026-05-04 20:56 37.61222 -96.70672 29726 ft 392 kts 282°
2026-05-04 20:56 37.62271 -96.77407 29729 ft 391 kts 282°
2026-05-04 20:57 37.63313 -96.84128 29726 ft 390 kts 282°
2026-05-04 20:57 37.64324 -96.90700 29721 ft 390 kts 282°
2026-05-04 20:58 37.65355 -96.97411 29717 ft 390 kts 282°
2026-05-04 20:58 37.66383 -97.04118 29713 ft 390 kts 282°
2026-05-04 20:59 37.67406 -97.10838 29714 ft 389 kts 282°
2026-05-04 20:59 37.68420 -97.17554 29714 ft 389 kts 282°
2026-05-04 21:00 37.69426 -97.24219 29716 ft 389 kts 282°
2026-05-04 21:00 37.70442 -97.30925 29708 ft 389 kts 282°
2026-05-04 21:01 37.71454 -97.37630 29683 ft 389 kts 282°
2026-05-04 21:01 37.72455 -97.44342 29683 ft 389 kts 282°
2026-05-04 21:02 37.73447 -97.51059 29682 ft 389 kts 282°
2026-05-04 21:02 37.74424 -97.57729 29678 ft 389 kts 281°
2026-05-04 21:03 37.74949 -97.64552 29669 ft 391 kts 277°
2026-05-04 21:03 37.75413 -97.71394 29661 ft 391 kts 277°
2026-05-04 21:04 37.75870 -97.78189 29651 ft 391 kts 277°
2026-05-04 21:04 37.76326 -97.85029 29645 ft 391 kts 277°
2026-05-04 21:05 37.76779 -97.91881 29644 ft 391 kts 277°
2026-05-04 21:05 37.77227 -97.98733 29638 ft 391 kts 277°
2026-05-04 21:06 37.77676 -98.05591 29638 ft 392 kts 277°
2026-05-04 21:06 37.78116 -98.12410 29629 ft 392 kts 277°
2026-05-04 21:07 37.78552 -98.19273 29629 ft 392 kts 277°
2026-05-04 21:07 37.78991 -98.26142 29631 ft 392 kts 277°
2026-05-04 21:08 37.79421 -98.33013 29640 ft 392 kts 276°
2026-05-04 21:08 37.79843 -98.39882 29652 ft 392 kts 276°
2026-05-04 21:09 37.80262 -98.46712 29663 ft 392 kts 276°
2026-05-04 21:09 37.80684 -98.53588 29674 ft 392 kts 276°
2026-05-04 21:10 37.81098 -98.60463 29683 ft 392 kts 276°
2026-05-04 21:10 37.81513 -98.67343 29691 ft 392 kts 276°
2026-05-04 21:11 37.81918 -98.74174 29694 ft 392 kts 276°
2026-05-04 21:11 37.82317 -98.81051 29692 ft 392 kts 276°
2026-05-04 21:12 37.82713 -98.87922 29687 ft 392 kts 276°
2026-05-04 21:12 37.83097 -98.94638 29677 ft 392 kts 276°
2026-05-04 21:13 37.83485 -99.01456 29664 ft 391 kts 276°
2026-05-04 21:13 37.83873 -99.08320 29657 ft 391 kts 276°
2026-05-04 21:14 37.84252 -99.15182 29646 ft 391 kts 276°
2026-05-04 21:14 37.84629 -99.22038 29644 ft 391 kts 276°
2026-05-04 21:15 37.85005 -99.28890 29638 ft 390 kts 276°
2026-05-04 21:15 37.85373 -99.35694 29641 ft 390 kts 276°
2026-05-04 21:16 37.85737 -99.42544 29640 ft 390 kts 276°
2026-05-04 21:16 37.86094 -99.49393 29635 ft 390 kts 276°
2026-05-04 21:17 37.86449 -99.56239 29640 ft 390 kts 276°
2026-05-04 21:17 37.86796 -99.63037 29656 ft 390 kts 275°
2026-05-04 21:18 37.87142 -99.69880 29664 ft 390 kts 275°
2026-05-04 21:18 37.87486 -99.76723 29675 ft 389 kts 275°
2026-05-04 21:19 37.87833 -99.83556 29686 ft 389 kts 275°
2026-05-04 21:19 37.88170 -99.90394 29691 ft 389 kts 275°
2026-05-04 21:20 37.88502 -99.97180 29694 ft 389 kts 275°
2026-05-04 21:20 37.88834 -100.04014 29694 ft 389 kts 275°
2026-05-04 21:21 37.89159 -100.10843 29694 ft 389 kts 275°
2026-05-04 21:21 37.89474 -100.17673 29690 ft 388 kts 275°
2026-05-04 21:22 37.89790 -100.24489 29675 ft 388 kts 275°
2026-05-04 21:22 37.90100 -100.31260 29667 ft 387 kts 275°
2026-05-04 21:23 37.90412 -100.38067 29674 ft 387 kts 275°
2026-05-04 21:23 37.90714 -100.44866 29695 ft 387 kts 275°
2026-05-04 21:24 37.91009 -100.51661 29709 ft 386 kts 275°
2026-05-04 21:24 37.91300 -100.58399 29723 ft 386 kts 275°
2026-05-04 21:25 37.91593 -100.65175 29733 ft 385 kts 275°
2026-05-04 21:25 37.91885 -100.71942 29733 ft 384 kts 276°
2026-05-04 21:26 37.92622 -100.78626 29727 ft 383 kts 279°
2026-05-04 21:26 37.93399 -100.85244 29726 ft 382 kts 279°
2026-05-04 21:27 37.94172 -100.91902 29710 ft 382 kts 279°
2026-05-04 21:27 37.94935 -100.98539 29687 ft 382 kts 279°
2026-05-04 21:28 37.95702 -101.05193 29682 ft 382 kts 279°
2026-05-04 21:28 37.96462 -101.11852 29650 ft 382 kts 279°
2026-05-04 21:29 37.97209 -101.18470 29637 ft 382 kts 279°
2026-05-04 21:29 37.97964 -101.25137 29628 ft 382 kts 279°
2026-05-04 21:30 37.98720 -101.31805 29626 ft 382 kts 279°
2026-05-04 21:30 37.99469 -101.38478 29624 ft 383 kts 279°
2026-05-04 21:31 38.00573 -101.48454 29624 ft 383 kts 279°
2026-05-04 21:32 38.01314 -101.55145 29619 ft 383 kts 278°
2026-05-04 21:32 38.02052 -101.61833 29613 ft 383 kts 278°
2026-05-04 21:33 38.02781 -101.68528 29621 ft 383 kts 278°
2026-05-04 21:33 38.03513 -101.75225 29617 ft 383 kts 278°
2026-05-04 21:34 38.04234 -101.81882 29615 ft 384 kts 278°
2026-05-04 21:34 38.04952 -101.88588 29612 ft 384 kts 278°
2026-05-04 21:35 38.05668 -101.95294 29613 ft 384 kts 278°
2026-05-04 21:35 38.06380 -102.01959 29611 ft 384 kts 278°
2026-05-04 21:36 38.07095 -102.08673 29612 ft 384 kts 278°
2026-05-04 21:36 38.07805 -102.15392 29612 ft 384 kts 278°
2026-05-04 21:37 38.08506 -102.22105 29617 ft 384 kts 278°
2026-05-04 21:37 38.09199 -102.28775 29642 ft 383 kts 278°
2026-05-04 21:38 38.09890 -102.35482 29669 ft 383 kts 278°
2026-05-04 21:38 38.10579 -102.42187 29695 ft 383 kts 278°
2026-05-04 21:39 38.11268 -102.48883 29715 ft 382 kts 278°
2026-05-04 21:39 38.11947 -102.55570 29738 ft 382 kts 278°
2026-05-04 21:40 38.12617 -102.62211 29748 ft 381 kts 278°
2026-05-04 21:40 38.13285 -102.68894 29750 ft 381 kts 278°
2026-05-04 21:41 38.13952 -102.75564 29754 ft 381 kts 278°
2026-05-04 21:41 38.14620 -102.82227 29733 ft 380 kts 278°
2026-05-04 21:42 38.15279 -102.88881 29719 ft 380 kts 278°
2026-05-04 21:42 38.15927 -102.95474 29704 ft 379 kts 278°
2026-05-04 21:43 38.16573 -103.02123 29679 ft 379 kts 277°
2026-05-04 21:43 38.17217 -103.08767 29659 ft 379 kts 277°
2026-05-04 21:44 38.17858 -103.15406 29673 ft 378 kts 277°
2026-05-04 21:44 38.18496 -103.22045 29696 ft 378 kts 277°
2026-05-04 21:45 38.19127 -103.28636 29717 ft 378 kts 277°
2026-05-04 21:45 38.19755 -103.35273 29731 ft 378 kts 277°
2026-05-04 21:46 38.20379 -103.41907 29742 ft 378 kts 277°
2026-05-04 21:46 38.20998 -103.48540 29744 ft 378 kts 277°
2026-05-04 21:47 38.21617 -103.55131 29742 ft 378 kts 277°
2026-05-04 21:47 38.22226 -103.61762 29728 ft 378 kts 277°
2026-05-04 21:48 38.22831 -103.68395 29712 ft 377 kts 277°
2026-05-04 21:48 38.23441 -103.75023 29694 ft 377 kts 277°
2026-05-04 21:49 38.24046 -103.81645 29671 ft 377 kts 277°
2026-05-04 21:49 38.24642 -103.88222 29641 ft 377 kts 277°
2026-05-04 21:50 38.25237 -103.94850 29635 ft 377 kts 277°
2026-05-04 21:50 38.25826 -104.01479 29631 ft 377 kts 277°
2026-05-04 21:51 38.26412 -104.08115 29652 ft 377 kts 277°
2026-05-04 21:51 38.26995 -104.14707 29677 ft 378 kts 277°
2026-05-04 21:52 38.27574 -104.21356 29714 ft 378 kts 277°
2026-05-04 21:52 38.28144 -104.28009 29743 ft 378 kts 277°
2026-05-04 21:53 38.28720 -104.34665 29774 ft 379 kts 277°
2026-05-04 21:53 38.29286 -104.41335 29790 ft 379 kts 276°
2026-05-04 21:54 38.29815 -104.47965 29788 ft 379 kts 276°
2026-05-04 21:54 38.30278 -104.54658 29788 ft 380 kts 275°
2026-05-04 21:55 38.30731 -104.61361 29786 ft 380 kts 275°
2026-05-04 21:55 38.31195 -104.68061 29746 ft 380 kts 275°
2026-05-04 21:56 38.31657 -104.74726 29704 ft 380 kts 275°
2026-05-04 21:56 38.32117 -104.81436 29650 ft 380 kts 275°
2026-05-04 21:57 38.32572 -104.88142 29593 ft 380 kts 275°
2026-05-04 21:57 38.33025 -104.94827 29524 ft 380 kts 275°
2026-05-04 21:58 38.33476 -105.01493 29511 ft 380 kts 275°
2026-05-04 21:58 38.33920 -105.08204 29504 ft 380 kts 275°
2026-05-04 21:59 38.34354 -105.14922 29510 ft 381 kts 275°
2026-05-04 21:59 38.34788 -105.21637 29529 ft 380 kts 275°
2026-05-04 22:00 38.35230 -105.28353 29541 ft 381 kts 275°
2026-05-04 22:00 38.35663 -105.35037 29565 ft 381 kts 275°
2026-05-04 22:01 38.36090 -105.41763 29586 ft 381 kts 275°
2026-05-04 22:01 38.36512 -105.48487 29613 ft 380 kts 275°
2026-05-04 22:02 38.36929 -105.55200 29642 ft 380 kts 275°
2026-05-04 22:02 38.37338 -105.61879 29662 ft 381 kts 275°
2026-05-04 22:03 38.37754 -105.68602 29714 ft 381 kts 275°
2026-05-04 22:03 38.38167 -105.75332 29778 ft 381 kts 275°
2026-05-04 22:04 38.38569 -105.82059 29837 ft 381 kts 275°
2026-05-04 22:04 38.38968 -105.88789 29880 ft 381 kts 275°
2026-05-04 22:05 38.39360 -105.95482 29888 ft 381 kts 274°
2026-05-04 22:05 38.39743 -106.02255 29918 ft 383 kts 274°
2026-05-04 22:06 38.40141 -106.09034 29928 ft 384 kts 275°
2026-05-04 22:06 38.40537 -106.15824 29917 ft 384 kts 274°
2026-05-04 22:07 38.40920 -106.22621 29908 ft 385 kts 274°
2026-05-04 22:07 38.41291 -106.29384 29892 ft 385 kts 274°
2026-05-04 22:08 38.41667 -106.36200 29875 ft 385 kts 274°
2026-05-04 22:08 38.42047 -106.43020 29886 ft 386 kts 274°
2026-05-04 22:09 38.42422 -106.49847 29869 ft 386 kts 274°
2026-05-04 22:09 38.42791 -106.56636 29900 ft 386 kts 274°
2026-05-04 22:10 38.43148 -106.63473 29925 ft 387 kts 274°
2026-05-04 22:10 38.43500 -106.70321 29959 ft 387 kts 274°
2026-05-04 22:11 38.43854 -106.77172 29969 ft 387 kts 274°
2026-05-04 22:11 38.44206 -106.83985 29995 ft 388 kts 274°
2026-05-04 22:12 38.44552 -106.90833 30022 ft 388 kts 273°
2026-05-04 22:12 38.44896 -106.97718 30006 ft 389 kts 274°
2026-05-04 22:13 38.45595 -107.04546 29987 ft 390 kts 284°
2026-05-04 22:13 38.47696 -107.10921 29977 ft 394 kts 291°
2026-05-04 22:14 38.49967 -107.17286 29946 ft 395 kts 292°
2026-05-04 22:14 38.52232 -107.23688 29925 ft 396 kts 291°
2026-05-04 22:15 38.54506 -107.30113 29886 ft 397 kts 291°
2026-05-04 22:15 38.56779 -107.36547 29871 ft 398 kts 291°
2026-05-04 22:16 38.59035 -107.42951 29836 ft 398 kts 291°
2026-05-04 22:16 38.61310 -107.49420 29844 ft 399 kts 291°
2026-05-04 22:17 38.63595 -107.55911 29852 ft 400 kts 291°
2026-05-04 22:17 38.65878 -107.62410 29859 ft 401 kts 291°
2026-05-04 22:18 38.68144 -107.68884 29866 ft 401 kts 291°
2026-05-04 22:18 38.70415 -107.75417 29872 ft 402 kts 291°
2026-05-04 22:19 38.72684 -107.81962 29856 ft 402 kts 290°
2026-05-04 22:19 38.73823 -107.85245 29661 ft 403 kts 290°
2026-05-04 22:19 38.74963 -107.88524 28810 ft 404 kts 291°
2026-05-04 22:19 38.76105 -107.91814 27889 ft 405 kts 291°
2026-05-04 22:20 38.77246 -107.95101 27373 ft 399 kts 291°
2026-05-04 22:20 38.78362 -107.98318 26886 ft 392 kts 291°
2026-05-04 22:20 38.79466 -108.01506 26126 ft 392 kts 291°
2026-05-04 22:20 38.80563 -108.04675 25367 ft 394 kts 291°
2026-05-04 22:21 38.81671 -108.07880 24737 ft 393 kts 291°
2026-05-04 22:21 38.82772 -108.11080 24111 ft 392 kts 291°
2026-05-04 22:21 38.83871 -108.14276 23495 ft 391 kts 291°
2026-05-04 22:21 38.84963 -108.17459 22807 ft 389 kts 292°
2026-05-04 22:22 38.86050 -108.20631 22160 ft 387 kts 292°
2026-05-04 22:22 38.87132 -108.23785 21525 ft 386 kts 292°
2026-05-04 22:22 38.88211 -108.26932 20962 ft 384 kts 292°
2026-05-04 22:22 38.89268 -108.30019 20417 ft 382 kts 292°
2026-05-04 22:23 38.90334 -108.33136 19903 ft 381 kts 292°
2026-05-04 22:23 38.91396 -108.36246 19377 ft 379 kts 292°
2026-05-04 22:23 38.92455 -108.39356 18746 ft 382 kts 292°
2026-05-04 22:23 38.93520 -108.42488 18121 ft 384 kts 292°
2026-05-04 22:24 38.94585 -108.45613 17728 ft 378 kts 292°
2026-05-04 22:24 38.95631 -108.48689 17284 ft 373 kts 292°
2026-05-04 22:24 38.96660 -108.51728 16764 ft 370 kts 292°
2026-05-04 22:24 38.97683 -108.54745 16232 ft 366 kts 292°
2026-05-04 22:25 38.98700 -108.57746 15442 ft 370 kts 292°
2026-05-04 22:25 38.99723 -108.60771 14484 ft 376 kts 292°
2026-05-04 22:25 39.00757 -108.63826 13528 ft 369 kts 291°
2026-05-04 22:25 39.01769 -108.66815 12530 ft 361 kts 291°
2026-05-04 22:26 39.02757 -108.69734 11669 ft 350 kts 291°
2026-05-04 22:26 39.03707 -108.72547 11097 ft 335 kts 291°
2026-05-04 22:26 39.04595 -108.75185 10968 ft 308 kts 291°
2026-05-04 22:26 39.05416 -108.77619 10894 ft 288 kts 290°
2026-05-04 22:27 39.06192 -108.79955 10773 ft 284 kts 289°
2026-05-04 22:27 39.06906 -108.82317 10643 ft 282 kts 288°
2026-05-04 22:27 39.07570 -108.84653 10514 ft 282 kts 287°
2026-05-04 22:27 39.08231 -108.87023 10372 ft 280 kts 287°
2026-05-04 22:28 39.08891 -108.89386 10242 ft 281 kts 287°
2026-05-04 22:28 39.09554 -108.91745 10105 ft 280 kts 287°
2026-05-04 22:28 39.10221 -108.94104 9967 ft 280 kts 287°
2026-05-04 22:28 39.10932 -108.96454 9610 ft 287 kts 291°
2026-05-04 22:29 39.11943 -108.98752 8796 ft 304 kts 306°
2026-05-04 22:29 39.13595 -109.00436 8346 ft 312 kts 335°
2026-05-04 22:29 39.15671 -109.00780 8216 ft 297 kts
2026-05-04 22:29 39.17458 -108.99698 8222 ft 278 kts 43°
2026-05-04 22:30 39.18645 -108.97834 8244 ft 265 kts 53°
2026-05-04 22:30 39.19706 -108.95906 8242 ft 263 kts 54°
2026-05-04 22:30 39.20753 -108.93972 8246 ft 262 kts 54°
2026-05-04 22:30 39.21810 -108.92052 8258 ft 261 kts 53°
2026-05-04 22:31 39.22839 -108.90216 8244 ft 243 kts 53°
2026-05-04 22:31 39.23818 -108.88497 8266 ft 240 kts 52°
2026-05-04 22:31 39.24810 -108.86772 8276 ft 239 kts 52°
2026-05-04 22:31 39.25802 -108.85052 8280 ft 239 kts 52°
2026-05-04 22:32 39.26663 -108.83235 8279 ft 234 kts 70°
2026-05-04 22:32 39.26992 -108.81262 8326 ft 219 kts 90°
2026-05-04 22:32 39.26815 -108.79351 8302 ft 208 kts 111°
2026-05-04 22:32 39.26249 -108.77780 8312 ft 182 kts 129°
2026-05-04 22:33 39.25529 -108.76454 8322 ft 179 kts 130°
2026-05-04 22:33 39.24815 -108.75144 8325 ft 179 kts 130°
2026-05-04 22:33 39.24099 -108.73829 8231 ft 179 kts 130°
2026-05-04 22:33 39.23393 -108.72535 8036 ft 178 kts 130°
2026-05-04 22:34 39.22682 -108.71229 7845 ft 178 kts 130°
2026-05-04 22:34 39.21972 -108.69929 7623 ft 177 kts 129°
2026-05-04 22:34 39.21265 -108.68635 7413 ft 176 kts 129°
2026-05-04 22:34 39.20563 -108.67349 7194 ft 175 kts 130°
2026-05-04 22:35 39.19864 -108.66069 6989 ft 175 kts 130°
2026-05-04 22:35 39.19170 -108.64799 6767 ft 173 kts 130°
2026-05-04 22:35 39.18480 -108.63538 6565 ft 172 kts 129°
2026-05-04 22:35 39.17792 -108.62279 6391 ft 172 kts 130°
2026-05-04 22:36 39.17108 -108.61030 6220 ft 174 kts 129°
2026-05-04 22:36 39.16416 -108.59767 6026 ft 171 kts 129°
2026-05-04 22:36 39.15731 -108.58514 5818 ft 171 kts 127°
2026-05-04 22:36 39.15047 -108.57266 5573 ft 170 kts 126°
2026-05-04 22:37 39.14374 -108.56038 5277 ft 166 kts 127°
2026-05-04 22:37 39.13712 -108.54831 5021 ft 164 kts 127°
2026-05-04 22:37 39.13063 -108.53654 4846 ft 154 kts 125°
2026-05-04 22:37 39.12585 -108.52783 4854 ft 76 kts 125°
2026-05-04 22:38 39.12380 -108.52406 4860 ft 37 kts 126°
2026-05-04 22:38 39.12311 -108.52310 4861 ft 13 kts 172°
2026-05-04 22:38 39.12248 -108.52389 4859 ft 16 kts 275°
2026-05-04 22:38 39.12318 -108.52530 4857 ft 22 kts 305°
2026-05-04 22:39 39.12390 -108.52662 4858 ft 19 kts 306°
2026-05-04 22:39 39.12433 -108.52787 4854 ft 15 kts 243°
2026-05-04 22:39 39.12400 -108.52855 4854 ft 10 kts 285°
2026-05-04 22:39 39.12403 -108.52877 4853 ft 1 kts 245°
2026-05-04 22:40 39.12393 -108.52884 4856 ft 3 kts 207°
2026-05-04 22:40 39.12379 -108.52879 4853 ft 2 kts 158°
2026-05-04 22:40 39.12350 -108.52889 4854 ft 5 kts 210°
2026-05-04 22:40 39.12340 -108.52897 4853 ft 0 kts 212°